Location: Bush Observatory
(40.2653°N, 94.3194°W)
Time: 23:22:28
(UTC-05:00)

Daily predictions for brighter satellites

Satellite Brightness Start Highest point End
(mag) Time Altitude Azimuth Time Altitude Azimuth Time Altitude Azimuth
USA 234 4.4 20:32:29 10° E 20:38:07 32° NNE 20:43:46 10° NW
Intercosmos 25 Rocket 3.3 20:35:04 10° S 20:38:20 62° E 20:42:50 10° NNE
ALOS 3.3 20:36:11 10° S 20:40:43 50° W 20:45:16 10° NNW
FENGYUN 3A 4.4 20:37:39 10° S 20:42:53 56° W 20:48:10 10° NNW
Cosmos 2219 Rocket 3.8 20:45:10 10° SE 20:47:54 14° E 20:50:38 10° ENE
Envisat 3.6 20:44:19 10° SE 20:49:02 40° ENE 20:53:47 10° N
Resurs 1-3 3.7 20:46:19 10° SSE 20:50:42 87° WSW 20:55:07 10° NNW
Meteor 1-29 3.9 20:48:13 10° NE 20:51:13 27° E 20:54:11 10° SSE
SAR-Lupe-4 4.2 20:48:28 10° SE 20:51:47 37° ENE 20:55:07 10° N
USA 186 1.5 20:49:41 10° SSE 20:52:31 66° ENE 20:55:34 10° N
Cosmos 1933 3.3 20:57:16 10° S 21:01:17 86° E 21:05:20 10° N
ERS-1 Rocket 4.1 21:01:58 12° ESE 21:05:42 27° ENE 21:09:55 10° N
Cosmos 1867 3.6 21:00:17 10° NNW 21:05:46 83° ENE 21:10:59 11° SSE
Milstar 3 4.2 20:58:47 10° WSW 21:06:21 28° SSW 21:11:48 11° SE
Cosmos 2263 Rocket 2.7 21:02:57 10° NNW 21:08:27 61° WSW 21:13:55 10° S
SAR-Lupe-1 4.3 21:05:38 11° SSE 21:09:00 52° ENE 21:12:30 10° N
Cosmos 2266 Rocket 4.4 21:04:25 10° N 21:10:29 46° ENE 21:16:20 11° SSE
Spot 1 4.5 21:05:27 10° SSE 21:10:33 75° ENE 21:15:33 10° N
Cosmos 1862 3.9 21:07:52 10° NNW 21:11:52 59° W 21:15:51 10° S
CZ-4B DEB 4.4 21:08:50 10° SSE 21:12:22 76° ENE 21:15:55 10° N
NOSS 3-1 (C) 3.9 21:12:05 10° S 21:17:06 33° ESE 21:22:33 10° NE
Cosmos 2221 Rocket 4.1 21:14:06 10° SSE 21:18:08 37° E 21:22:13 10° NNE
Cosmos 1825 4.2 21:15:51 10° NNW 21:19:10 29° W 21:22:29 10° SSW
Cosmos 1782 4.3 21:18:24 18° ESE 21:19:22 19° E 21:22:16 10° NE
Cosmos 1655 Rocket 4.5 21:13:08 10° NNW 21:19:27 67° W 21:25:42 10° S
Meteor 1-26 Rocket 4.2 21:14:02 10° S 21:19:41 68° E 21:25:29 10° NNE
Cosmos 2322 Rocket 4.4 21:18:42 10° WSW 21:23:30 29° NW 21:28:20 10° N
USA 229 DEB 3.7 21:17:45 10° SSW 21:24:34 89° WNW 21:31:34 10° NE
USA 229 3.7 21:17:52 10° SSW 21:24:41 90° SSW 21:31:40 10° NE
Cosmos 2237 4.1 21:23:31 10° SSW 21:29:14 78° ESE 21:34:58 10° NNE
Cosmos 2360 Rocket 2.7 21:23:52 10° SW 21:29:27 63° WNW 21:35:06 10° NNE
NOSS 3-1 (A) 3.9 21:29:55 10° S 21:34:56 32° ESE 21:40:23 10° NE
Cosmos 1908 Rocket 3.6 21:30:39 10° N 21:35:01 82° W 21:38:52 13° S
ATLAS 5 CENTAUR R/B 3.1 21:29:52 10° NW 21:35:47 52° WSW 21:41:38 12° S
BREEZE-M DEB (TANK) 4.4 21:32:37 10° WSW 21:36:51 79° NNW 21:50:08 10° ENE
Resurs 01 Rocket 3.9 21:33:18 10° SSW 21:36:53 24° W 21:40:28 10° NW
COSMOS 2428 2.6 21:33:20 10° SSW 21:38:58 71° ESE 21:44:40 10° NNE
Helios 1A 3.9 21:35:40 10° S 21:39:46 49° W 21:43:54 10° NNW
Cosmos 1939 Rocket 3.0 21:36:47 15° S 21:40:07 72° WSW 21:44:06 10° NNW
SJ-11-01 4.4 21:35:53 12° S 21:40:11 74° WSW 21:44:52 10° NNW
CZ-4B DEB 3.4 21:38:31 17° S 21:40:38 50° W 21:43:36 10° NNW
ARGOS 4.0 21:41:15 24° ESE 21:43:35 34° ENE 21:48:22 10° N
Abrixas rocket 4.1 21:43:32 10° NW 21:46:20 25° NNE 21:47:59 17° ENE
USA 267 4.2 21:40:23 10° NE 21:46:38 50° NNW 21:52:53 10° WSW
Cosmos 1777 Rocket 4.0 21:41:30 10° NNW 21:46:48 75° ENE 21:49:46 26° SSE
Cosmos 1844 4.1 21:41:46 10° NNW 21:47:13 46° ENE 21:49:48 28° ESE
YAOGAN 6 2.4 21:46:02 32° SSE 21:47:38 81° ENE 21:51:14 10° N
Cosmos 1606 3.4 21:48:19 32° E 21:48:22 32° E 21:51:46 10° NNE
Okean 1-7 2.9 21:45:24 15° S 21:48:58 75° E 21:53:23 10° N
Cosmos 1782 Rocket 3.5 21:45:32 10° N 21:49:56 84° E 21:52:23 26° S
Sich 1 Rocket 4.3 21:46:40 10° NNW 21:51:05 54° W 21:55:08 12° S
Atlas Centaur 2 3.4 21:46:42 10° WSW 21:52:29 35° S 21:55:28 26° SE
Cosmos 2084 4.3 21:50:18 10° NNW 21:53:47 32° NE 21:54:45 28° ENE
SPOT 1/Viking Rocket 4.5 21:55:00 27° E 21:56:33 32° ENE 22:01:08 10° N
Meteor 1-10 Rocket 4.4 21:54:01 23° SSE 21:57:33 54° E 22:03:14 10° NNE
Meteor 1-25 Rocket 4.2 21:59:21 10° N 22:04:57 85° W 22:08:08 26° S
MOS 1-B Rocket 4.1 22:02:56 33° SE 22:05:16 53° ENE 22:10:42 10° N
SL-08 RB Rocket 4.3 22:05:09 36° E 22:05:56 39° ENE 22:10:10 10° N
MetOp-A 4.1 22:03:40 33° SSE 22:06:05 73° ENE 22:11:26 10° N
USA 245 4.2 22:05:25 37° SE 22:07:08 53° ENE 22:11:37 10° N
Cosmos 1844 Rocket 2.6 22:03:30 10° NNW 22:09:07 90° WSW 22:11:29 36° SSE
Meteor 1-20 Rocket 4.2 22:03:50 10° N 22:09:29 88° W 22:12:30 29° S
Cosmos 2237 Rocket 2.6 22:08:37 38° SE 22:09:40 41° ESE 22:14:59 10° NE
Okean 2 Rocket 3.1 22:06:30 10° N 22:11:02 81° W 22:12:43 38° S
CZ-4C R/B 3.3 22:06:37 10° NNW 22:13:32 50° NE 22:17:07 30° ESE
Cosmos 2278 Rocket 2.7 22:10:33 10° N 22:15:57 43° ENE 22:17:25 36° E
Cosmos 2333 Rocket 2.1 22:13:47 19° S 22:17:55 68° ESE 22:23:40 10° NNE
S3M 4.3 22:18:41 40° SE 22:20:04 46° E 22:25:58 10° NNE
USA 234 3.2 22:17:39 36° SE 22:20:36 86° NE 22:27:11 10° NW
Cosmos 1633 3.2 22:19:42 10° N 22:22:38 44° NE 22:22:38 44° NE
Meteor 2-6 Rocket 4.3 22:24:06 29° S 22:27:21 86° E 22:33:19 10° N
Cosmos 2219 Rocket 2.3 22:25:31 10° SSW 22:31:05 75° WNW 22:36:44 10° NNE
SPOT 5 2.8 22:37:06 58° SSW 22:37:54 74° WSW 22:42:29 10° NNW
SeaSat 1 2.6 22:38:34 54° E 22:39:03 57° ENE 22:43:54 10° NNW
ERS-1 Rocket 4.3 22:41:58 22° SW 22:44:21 34° W 22:48:54 10° NNW
Gbstr 26 Del rocket 4.4 22:37:03 10° SW 22:44:43 82° SE 22:52:55 10° NE
Cosmos 2151 Rocket 3.6 22:41:26 10° NNW 22:45:53 70° W 22:46:05 69° WSW
H-2A R/B 1.8 22:47:20 76° ESE 22:47:34 79° ENE 22:52:30 10° N
NOSS 0 Rocket 3.9 22:44:09 19° SSW 22:48:42 81° WNW 22:54:53 10° NNE
Cosmos 2298 Rocket 4.4 22:45:19 10° N 22:50:30 49° ENE 22:50:34 49° ENE
Cosmos 1674 Rocket 3.8 22:52:48 60° NNE 22:52:48 60° NNE 22:56:23 10° N
Cosmos 1745 Rocket 3.9 22:46:35 10° N 22:52:56 72° E 22:53:58 61° SE
Okean 1 Rocket 3.9 22:50:38 10° N 22:54:01 43° NE 22:54:01 43° NE
Landsat 7 3.8 22:55:49 71° NE 22:55:49 71° NE 23:00:17 10° N
Cosmos 1937 Rocket 4.0 22:52:06 10° N 22:56:57 47° ENE 22:56:57 47° ENE
ASTEX 1 3.4 23:00:41 78° NE 23:00:41 78° NE 23:05:27 10° N
H-2A R/B 2.7 23:04:32 51° NNE 23:04:32 51° NNE 23:07:56 10° N
Iridium 4 Rocket 3.9 23:01:16 10° N 23:04:12 44° NNE 23:04:12 44° NNE
Cosmos 1346 Rocket 3.9 23:07:05 42° NW 23:07:05 42° NW 23:10:22 10° N
Cosmos 2285 Rocket 4.3 23:08:10 52° E 23:08:10 52° E 23:13:44 10° NNE
DMSP B5D2-2 4.0 23:04:25 10° NNE 23:09:30 82° NE 23:09:30 82° NE
Terra 2.2 23:11:24 60° NNE 23:11:24 60° NNE 23:15:24 10° N
Cosmos 2297 3.9 23:09:02 10° NNW 23:14:31 59° NE 23:14:31 59° NE
Meteor 1-27 Rocket 4.3 23:15:33 43° WSW 23:16:57 54° WNW 23:22:26 10° N
Cosmos 1763 Rocket 4.4 23:21:14 38° NE 23:21:14 38° NE 23:24:37 10° NNE
ARGOS 4.5 23:22:46 28° WSW 23:23:48 30° W 23:28:30 10° NW
Cosmos 2150 Rocket 4.2 23:18:28 10° NNW 23:23:27 74° N 23:23:27 74° N
Cosmos 1898 Rocket 3.8 23:20:15 10° NNW 23:24:50 62° WNW 23:24:50 62° WNW
NOSS 3-1 (A) 4.5 23:20:01 10° WSW 23:25:34 43° NW 23:31:47 10° NNE
ATLAS 2AS CENTAUR R/B 3.1 23:26:52 54° E 23:26:52 54° E 23:34:05 10° NE
SL-16 R/B 2.5 23:35:09 62° NNE 23:35:09 62° NNE 23:39:51 10° NNE
Atlas Centaur 2 4.5 23:35:44 10° WSW 23:38:05 18° SW 23:38:05 18° SW
Cosmos 2315 Rocket 4.0 23:46:48 74° NNE 23:46:48 74° NNE 23:52:27 10° N
ATLAS CENTAUR R/B 3.5 23:48:56 23° N 23:48:56 23° N 23:50:44 10° NNE
ATLAS 3B R/B 3.2 23:43:23 10° NNW 23:49:53 44° NE 23:50:28 43° ENE
Cosmos 2237 Rocket 3.9 23:50:19 16° WSW 23:53:50 29° WNW 23:58:45 10° N
